Simultaneous Nadir Overpasses (SNOs) Predictions

Prediction of SNOs between AQUA and GOES-15 Satellite Orbit:

Table of predicted SNOs for the next 14.0 days since TLE Epoch: 1/10/2020
Index Date Time (AQUA) AQUA Lat,Lon GOES-15 Lat,Lon Distance(km) Time Diff (sec)
1 01/11/2020 10:07:01 -0.13,-127.90 -0.04,-128.42 58.52 80
2 01/13/2020 09:54:51 -0.78,-124.95 -0.04,-128.43 395.46 80
3 01/13/2020 22:16:15 -0.32,-130.14 0.05,-128.41 197.16 80
4 01/15/2020 22:04:06 0.34,-127.20 0.05,-128.42 139.49 80
5 01/16/2020 10:25:20 0.77,-132.35 -0.05,-128.43 444.74 80
6 01/17/2020 21:51:55 0.94,-124.23 0.05,-128.42 475.83 80
7 01/18/2020 10:13:09 0.17,-129.39 -0.05,-128.44 108.42 80
8 01/20/2020 10:00:58 -0.44,-126.43 -0.04,-128.43 227.53 80
9 01/20/2020 22:22:23 -0.66,-131.62 0.05,-128.41 365.08 80
10 01/22/2020 22:10:12 -0.04,-128.66 0.04,-128.41 29.81 80




NCC Satellite Simultaneous Nadir Overpasses (SNOs) Prediction Service
